#�ϑ�����,���ϕ���,���ϕ���,�ő啗��,�ő啗����������,�ő�u�ԕ���,�ő�u�ԕ�����������
#(�N����),(m/s)   ,(16����),(m/s)   ,(16����)        ,(m/s)       ,(16����)            
2016/11/23 0:01,3,14,3.2,16,7.7,15
2016/11/23 0:02,2.8,14,2.9,16,3.8,13
2016/11/23 0:03,2.6,14,2.8,16,5,10
2016/11/23 0:04,2.4,14,2.5,16,2.2,12
2016/11/23 0:05,2.4,14,2.5,16,6.1,2
2016/11/23 0:06,2.7,13,2.7,15,9.1,10
2016/11/23 0:07,2.7,13,2.7,15,6.1,10
2016/11/23 0:08,2.8,13,2.8,15,6.2,12
2016/11/23 0:09,2.7,13,2.8,15,6.5,16
2016/11/23 0:10,2.6,12,2.7,15,3.8,2
2016/11/23 0:11,2.4,11,2.6,14,3.1,8
2016/11/23 0:12,2.3,11,2.3,14,3,9
2016/11/23 0:13,2.2,10,2.2,13,3.3,4
2016/11/23 0:14,2.5,12,2.5,13,7.4,15
2016/11/23 0:15,2.4,11,2.5,13,4.9,16
2016/11/23 0:16,2.4,13,2.4,13,8.9,1
2016/11/23 0:17,2.5,15,2.5,13,8.5,1
2016/11/23 0:18,2.7,16,2.7,13,7.8,1
2016/11/23 0:19,2.6,16,2.7,13,5.5,1
2016/11/23 0:20,2.9,16,2.9,16,8.3,1
2016/11/23 0:21,3.2,16,3.2,16,7.9,16
2016/11/23 0:22,3.4,16,3.4,16,5.5,16
2016/11/23 0:23,3.7,16,3.7,16,8.7,16
2016/11/23 0:24,3.5,16,3.6,16,7.9,16
2016/11/23 0:25,3.7,16,3.7,16,7.2,16
2016/11/23 0:26,3.7,16,3.8,16,9.2,14
2016/11/23 0:27,3.5,16,3.7,16,8.7,16
2016/11/23 0:28,3.4,16,3.4,16,9.2,15
2016/11/23 0:29,3.7,16,3.7,16,13.6,15
2016/11/23 0:30,4,16,4,16,12.5,16
2016/11/23 0:31,4.2,16,4.2,16,8.9,16
2016/11/23 0:32,4.3,16,4.3,16,11.5,15
2016/11/23 0:33,4.3,16,4.4,16,7.6,16
2016/11/23 0:34,4.2,16,4.3,16,5.4,14
2016/11/23 0:35,4.4,16,4.4,16,11.3,1
2016/11/23 0:36,4.3,16,4.5,16,8.4,1
2016/11/23 0:37,4.4,16,4.4,16,8.3,1
2016/11/23 0:38,4.5,16,4.5,16,6.7,16
2016/11/23 0:39,4.1,16,4.5,16,5.5,15
2016/11/23 0:40,3.5,16,4.1,16,3.3,2
2016/11/23 0:41,3.1,16,3.4,16,5.4,1
2016/11/23 0:42,2.9,16,3.1,16,4.7,2
2016/11/23 0:43,2.8,16,2.9,16,4.3,1
2016/11/23 0:44,2.8,1,2.8,16,6,2
2016/11/23 0:45,2.5,1,2.8,16,3.5,14
2016/11/23 0:46,2.5,1,2.5,16,8.1,1
2016/11/23 0:47,2.4,1,2.4,16,6.5,2
2016/11/23 0:48,2.2,1,2.4,16,3.7,3
2016/11/23 0:49,2.2,1,2.2,16,6.1,16
2016/11/23 0:50,2.2,1,2.2,16,2.2,2
2016/11/23 0:51,2.1,1,2.2,16,2.5,14
2016/11/23 0:52,2.1,1,2.1,16,5.6,1
2016/11/23 0:53,2.2,16,2.2,16,6.1,12
2016/11/23 0:54,2.2,16,2.2,1,3.6,9
2016/11/23 0:55,2.2,15,2.2,1,3,10
2016/11/23 0:56,2,14,2.2,1,3,15
2016/11/23 0:57,1.9,14,2,1,2.9,15
2016/11/23 0:58,1.8,14,1.9,1,3.5,15
2016/11/23 0:59,1.8,12,1.8,1,3.1,13
2016/11/23 1:00,1.9,12,1.9,1,4.7,13
2016/11/23 1:01,2,12,2,1,4.5,15
2016/11/23 1:02,1.8,11,2,1,3,10
2016/11/23 1:03,1.7,10,1.8,16,3.1,3
2016/11/23 1:04,1.6,10,1.7,16,3.5,3
2016/11/23 1:05,1.6,11,1.6,16,2.5,9
2016/11/23 1:06,1.5,11,1.6,14,4.2,9
2016/11/23 1:07,1.5,10,1.5,12,2.6,8
2016/11/23 1:08,1.7,10,1.7,12,6.2,10
2016/11/23 1:09,1.7,10,1.7,12,3.2,12
2016/11/23 1:10,1.6,9,1.7,12,2.6,8
2016/11/23 1:11,1.5,9,1.6,12,3.2,11
2016/11/23 1:12,1.6,9,1.6,11,4.5,9
2016/11/23 1:13,1.6,9,1.6,10,4.5,8
2016/11/23 1:14,1.5,9,1.6,10,1.8,8
2016/11/23 1:15,1.5,9,1.5,10,1.8,16
2016/11/23 1:16,1.6,9,1.6,10,3.8,4
2016/11/23 1:17,1.6,9,1.6,10,3,8
2016/11/23 1:18,1.6,9,1.6,10,3.2,12
2016/11/23 1:19,1.5,9,1.5,10,3.7,12
2016/11/23 1:20,1.5,10,1.6,9,3.2,9
2016/11/23 1:21,1.6,9,1.6,9,2.7,6
2016/11/23 1:22,1.5,10,1.6,9,4.2,8
2016/11/23 1:23,1.4,10,1.5,9,2.2,10
2016/11/23 1:24,1.6,10,1.6,9,4.2,4
2016/11/23 1:25,1.7,10,1.7,10,5.8,2
2016/11/23 1:26,1.7,11,1.7,10,3.1,14
2016/11/23 1:27,1.7,13,1.7,10,3.9,1
2016/11/23 1:28,1.9,13,1.9,13,5,11
2016/11/23 1:29,1.8,14,1.9,13,4.2,11
2016/11/23 1:30,1.8,14,1.8,13,2,9
2016/11/23 1:31,1.8,14,1.8,13,2.4,2
2016/11/23 1:32,1.8,14,1.8,13,3.2,3
2016/11/23 1:33,1.9,14,2,13,4.7,9
2016/11/23 1:34,1.9,14,1.9,13,3.2,4
2016/11/23 1:35,1.7,14,1.8,13,3.1,7
2016/11/23 1:36,1.9,13,1.9,13,4.1,11
2016/11/23 1:37,1.9,13,2,13,5.6,15
2016/11/23 1:38,1.9,13,1.9,13,8.4,16
2016/11/23 1:39,2.1,14,2.1,14,6.9,16
2016/11/23 1:40,2.4,15,2.4,15,8.4,2
2016/11/23 1:41,2.7,15,2.7,15,12.7,15
2016/11/23 1:42,3.4,15,3.4,15,11.5,16
2016/11/23 1:43,3.8,16,3.8,16,10.1,2
2016/11/23 1:44,4.2,16,4.2,16,9.2,1
2016/11/23 1:45,4.7,16,4.7,16,13,16
2016/11/23 1:46,5.2,16,5.2,16,12.6,16
2016/11/23 1:47,5.6,16,5.6,16,12.8,16
2016/11/23 1:48,5.9,16,6,16,12.3,16
2016/11/23 1:49,6.5,16,6.5,16,16.2,16
2016/11/23 1:50,6.8,16,6.8,16,13.2,16
2016/11/23 1:51,6.9,16,6.9,16,10.6,16
2016/11/23 1:52,6.7,16,6.9,16,9.9,2
2016/11/23 1:53,6.8,16,6.8,16,10.5,16
2016/11/23 1:54,6.8,16,6.9,16,11,15
2016/11/23 1:55,6.8,16,6.8,16,13.3,16
2016/11/23 1:56,7.1,16,7.1,16,15.6,16
2016/11/23 1:57,6.9,16,7,16,12.3,16
2016/11/23 1:58,6.7,16,6.8,16,9.7,1
2016/11/23 1:59,6.3,16,6.8,16,12.4,16
2016/11/23 2:00,6.3,16,6.3,16,13.2,1
2016/11/23 2:01,6.2,16,6.3,16,9.5,16
2016/11/23 2:02,5.9,1,6.2,16,8.2,16
2016/11/23 2:03,5.8,1,5.9,16,10.9,3
2016/11/23 2:04,5.9,1,5.9,16,11.8,15
2016/11/23 2:05,5.8,1,6,16,13.6,16
2016/11/23 2:06,5.4,1,5.7,16,12.1,2
2016/11/23 2:07,5.4,1,5.4,16,12.3,15
2016/11/23 2:08,5.3,1,5.4,16,8.3,16
2016/11/23 2:09,5.6,1,5.6,16,14.8,1
2016/11/23 2:10,5.7,1,5.7,16,14.7,1
2016/11/23 2:11,5.5,16,5.6,16,11.6,1
2016/11/23 2:12,5.8,16,5.8,1,14.2,16
2016/11/23 2:13,6,16,6,1,14.5,16
2016/11/23 2:14,6.2,16,6.3,16,13.6,1
2016/11/23 2:15,6.4,16,6.4,16,12.1,2
2016/11/23 2:16,6.4,16,6.4,16,14,16
2016/11/23 2:17,6.4,16,6.5,16,11,1
2016/11/23 2:18,6.9,16,6.9,16,13,1
2016/11/23 2:19,6.6,16,6.9,16,12.3,16
2016/11/23 2:20,6.6,16,6.7,16,12.8,1
2016/11/23 2:21,6.5,16,6.6,16,6.8,16
2016/11/23 2:22,6.9,16,6.9,16,15.4,1
2016/11/23 2:23,6.8,16,6.9,16,12.3,2
2016/11/23 2:24,6.5,16,6.9,16,13.2,16
2016/11/23 2:25,6.5,16,6.5,16,15.1,16
2016/11/23 2:26,6.4,16,6.6,16,11.7,16
2016/11/23 2:27,6.6,16,6.6,16,15.2,16
2016/11/23 2:28,6.6,16,6.6,16,15.6,1
2016/11/23 2:29,6.6,16,6.6,16,10.3,1
2016/11/23 2:30,6.5,16,6.6,16,11.6,1
2016/11/23 2:31,6.9,16,6.9,16,13.2,16
2016/11/23 2:32,6.7,16,6.9,16,16.2,15
2016/11/23 2:33,6.7,16,6.7,16,11.7,1
2016/11/23 2:34,6.9,16,6.9,16,15.9,16
2016/11/23 2:35,6.8,16,7,16,11.5,2
2016/11/23 2:36,7,1,7,16,13,1
2016/11/23 2:37,7.1,1,7.1,1,14.8,16
2016/11/23 2:38,7.1,1,7.1,1,11.6,1
2016/11/23 2:39,7.1,16,7.1,1,13,1
2016/11/23 2:40,7.4,16,7.5,16,14.2,1
2016/11/23 2:41,7.4,16,7.5,16,13,1
2016/11/23 2:42,7.4,16,7.5,16,12.3,16
2016/11/23 2:43,7.2,1,7.4,16,9.4,16
2016/11/23 2:44,7.1,1,7.2,16,13.3,16
2016/11/23 2:45,7,1,7.1,16,13.1,16
2016/11/23 2:46,6.9,1,7.1,16,12.7,1
2016/11/23 2:47,6.5,1,6.9,16,12.6,15
2016/11/23 2:48,6.4,1,6.5,16,14.4,2
2016/11/23 2:49,6.4,1,6.5,16,10.1,2
2016/11/23 2:50,6.2,1,6.4,16,16,2
2016/11/23 2:51,6.3,1,6.3,16,15.1,2
2016/11/23 2:52,5.9,1,6.2,16,10.7,1
2016/11/23 2:53,6,1,6,1,13.3,16
2016/11/23 2:54,5.9,1,6,1,10.7,16
2016/11/23 2:55,5.8,1,6,1,12.4,16
2016/11/23 2:56,5.6,1,5.7,1,10.7,16
2016/11/23 2:57,5.4,1,5.6,1,8.4,16
2016/11/23 2:58,5.1,1,5.4,1,8.9,1
2016/11/23 2:59,5.1,1,5.1,1,11.8,1
2016/11/23 3:00,5.2,1,5.2,1,14.9,1
2016/11/23 3:01,4.9,1,5.2,1,10,1
2016/11/23 3:02,4.9,1,4.9,1,10.5,2
2016/11/23 3:03,4.6,1,4.9,1,7.7,16
2016/11/23 3:04,4.6,1,4.6,1,12.6,1
2016/11/23 3:05,4.7,1,4.7,1,11.7,15
2016/11/23 3:06,4.9,1,4.9,1,11.7,1
2016/11/23 3:07,5.3,1,5.3,1,11.3,1
2016/11/23 3:08,5.7,16,5.7,16,13.2,16
2016/11/23 3:09,5.8,16,5.8,1,12.1,1
2016/11/23 3:10,5.6,16,5.8,1,14.1,1
2016/11/23 3:11,6.1,16,6.1,16,16.6,1
2016/11/23 3:12,6.3,16,6.3,16,11.8,16
2016/11/23 3:13,6.5,16,6.5,16,10.9,1
2016/11/23 3:14,6.3,16,6.5,16,7.4,16
2016/11/23 3:15,6.3,16,6.4,16,14.4,16
2016/11/23 3:16,6.4,16,6.4,16,11.4,1
2016/11/23 3:17,6.3,1,6.4,16,11.3,1
2016/11/23 3:18,5.8,1,6.2,16,6.7,16
2016/11/23 3:19,5.7,1,5.8,16,8.5,16
2016/11/23 3:20,5.7,1,5.7,16,12.6,14
2016/11/23 3:21,5.5,1,5.8,16,14,2
2016/11/23 3:22,5.6,1,5.6,16,13.8,2
2016/11/23 3:23,5.9,1,5.9,16,13.4,2
2016/11/23 3:24,6.2,1,6.2,16,14,16
2016/11/23 3:25,6.2,1,6.2,16,12.6,16
2016/11/23 3:26,6.3,1,6.3,16,10.2,1
2016/11/23 3:27,6.2,1,6.3,1,14.3,16
2016/11/23 3:28,6.5,1,6.6,1,15.1,2
2016/11/23 3:29,7,1,7,1,16.5,2
2016/11/23 3:30,6.8,1,7,1,10.8,1
2016/11/23 3:31,6.4,1,6.7,1,9.1,2
2016/11/23 3:32,6.1,1,6.4,1,11.4,16
2016/11/23 3:33,6.1,1,6.1,1,14.8,1
2016/11/23 3:34,6.2,1,6.3,1,14.2,1
2016/11/23 3:35,6.7,1,6.7,1,18.8,16
2016/11/23 3:36,6.6,1,6.8,1,12.8,16
2016/11/23 3:37,6.7,1,6.7,1,12.8,2
2016/11/23 3:38,6.6,16,6.7,1,11.1,2
2016/11/23 3:39,6.2,16,6.7,1,11.5,16
2016/11/23 3:40,6.5,16,6.5,1,12.2,1
2016/11/23 3:41,6.8,16,6.9,16,15.6,16
2016/11/23 3:42,7.1,16,7.1,16,13.8,16
2016/11/23 3:43,7.4,16,7.4,16,15.1,15
2016/11/23 3:44,7.5,16,7.5,16,14.4,16
2016/11/23 3:45,7,16,7.5,16,11.5,14
2016/11/23 3:46,6.8,16,6.9,16,13.5,2
2016/11/23 3:47,7,16,7,16,13.8,1
2016/11/23 3:48,7.5,16,7.5,16,17.7,1
2016/11/23 3:49,7.5,16,7.5,16,11.5,16
2016/11/23 3:50,7.4,16,7.5,16,11.3,16
2016/11/23 3:51,7.1,16,7.4,16,10.8,1
2016/11/23 3:52,7.4,16,7.4,16,15.1,2
2016/11/23 3:53,7.3,16,7.3,16,18,1
2016/11/23 3:54,7.2,16,7.4,16,18.4,16
2016/11/23 3:55,7.2,16,7.4,16,13.5,2
2016/11/23 3:56,7.3,16,7.3,16,9.7,16
2016/11/23 3:57,7.2,16,7.2,16,21.2,15
2016/11/23 3:58,7.1,16,7.2,16,16.8,1
2016/11/23 3:59,6.9,16,7,16,8.2,16
2016/11/23 4:00,7.2,16,7.2,16,12.2,1
2016/11/23 4:01,7.3,16,7.4,16,12.6,16
2016/11/23 4:02,6.8,16,7.3,16,9,15
2016/11/23 4:03,6.5,16,6.8,16,10.7,16
2016/11/23 4:04,6.4,16,6.5,16,11.3,1
2016/11/23 4:05,6.2,16,6.4,16,10.2,16
2016/11/23 4:06,6.4,16,6.4,16,15.4,2
2016/11/23 4:07,6.6,16,6.8,16,16.3,16
2016/11/23 4:08,6.5,1,6.6,16,11.6,16
2016/11/23 4:09,6.6,1,6.7,16,13,1
2016/11/23 4:10,6.7,1,6.7,16,13.5,1
2016/11/23 4:11,6.8,1,6.8,16,13.5,2
2016/11/23 4:12,6.7,1,6.9,1,9.8,1
2016/11/23 4:13,6.7,1,6.8,1,10.2,16
2016/11/23 4:14,7,1,7,1,12.7,1
2016/11/23 4:15,7.2,1,7.2,1,13.5,15
2016/11/23 4:16,7.2,1,7.2,1,13.6,2
2016/11/23 4:17,6.9,1,7.2,1,13.4,1
2016/11/23 4:18,7.1,1,7.1,1,17,1
2016/11/23 4:19,7.1,1,7.2,1,12.2,2
2016/11/23 4:20,7.2,1,7.2,1,13.3,15
2016/11/23 4:21,6.9,1,7.1,1,12.6,1
2016/11/23 4:22,7.2,1,7.2,1,14,16
2016/11/23 4:23,7.8,1,7.8,1,19.4,15
2016/11/23 4:24,7.4,1,7.7,1,15.2,2
2016/11/23 4:25,7.5,1,7.5,1,14.2,16
2016/11/23 4:26,7.9,16,7.9,16,18.1,16
2016/11/23 4:27,8.1,16,8.1,16,14.2,16
2016/11/23 4:28,7.9,16,8.2,16,16.1,15
2016/11/23 4:29,7.8,1,7.8,16,12.1,16
2016/11/23 4:30,7.6,1,7.7,16,12.3,16
2016/11/23 4:31,8,1,8,16,15.2,2
2016/11/23 4:32,7.9,16,8.2,16,11.3,1
2016/11/23 4:33,7.4,16,7.8,16,13.6,2
2016/11/23 4:34,7.8,16,7.8,16,15.4,14
2016/11/23 4:35,7.8,16,7.9,16,15.3,1
2016/11/23 4:36,7.2,16,7.8,16,13,16
2016/11/23 4:37,6.8,16,7.1,16,9.1,1
2016/11/23 4:38,6.5,16,6.7,1,10.1,1
2016/11/23 4:39,6.5,16,6.6,1,12.4,16
2016/11/23 4:40,6.7,16,6.7,1,13.3,1
2016/11/23 4:41,6.6,16,6.6,1,18.6,16
2016/11/23 4:42,6.9,16,6.9,16,17.9,16
2016/11/23 4:43,6.9,16,6.9,16,13.1,2
2016/11/23 4:44,6.9,16,7,16,15.7,16
2016/11/23 4:45,6.5,16,6.9,16,10.9,16
2016/11/23 4:46,6.9,16,6.9,16,14.4,16
2016/11/23 4:47,7.1,16,7.2,16,16.8,1
2016/11/23 4:48,7.3,16,7.3,16,14.7,15
2016/11/23 4:49,7.6,16,7.6,16,14.9,1
2016/11/23 4:50,7.4,16,7.6,16,13.6,1
2016/11/23 4:51,7.1,16,7.5,16,12.3,16
2016/11/23 4:52,7,16,7,16,13.5,2
2016/11/23 4:53,7.1,16,7.2,16,13.8,1
2016/11/23 4:54,6.9,16,7,16,13.8,16
2016/11/23 4:55,7,16,7,16,11.4,1
2016/11/23 4:56,6.9,16,7,16,14.3,2
2016/11/23 4:57,7.1,16,7.1,16,16.2,16
2016/11/23 4:58,7.1,16,7.3,16,13.3,16
2016/11/23 4:59,7,16,7.1,16,13.8,1
2016/11/23 5:00,6.8,16,7,16,13.6,16
2016/11/23 5:01,7,1,7,16,12.1,1
2016/11/23 5:02,6.7,16,7,16,8.3,1
2016/11/23 5:03,6.7,16,6.8,16,14.3,16
2016/11/23 5:04,6.6,16,6.7,16,14.5,1
2016/11/23 5:05,7.2,16,7.2,16,18.4,15
2016/11/23 5:06,7.2,16,7.2,16,17.1,1
2016/11/23 5:07,6.9,16,7.3,16,12.3,1
2016/11/23 5:08,6.7,16,6.8,16,9.9,2
2016/11/23 5:09,6.8,16,6.8,16,15,1
2016/11/23 5:10,7.1,16,7.1,16,15.1,16
2016/11/23 5:11,7,16,7.1,16,11,1
2016/11/23 5:12,7.3,16,7.4,16,17,15
2016/11/23 5:13,7.4,16,7.4,16,14.4,1
2016/11/23 5:14,7.4,16,7.6,16,10.9,1
2016/11/23 5:15,7,16,7.4,16,14,1
2016/11/23 5:16,7,16,7.1,16,16.2,1
2016/11/23 5:17,7.1,16,7.1,16,15.7,1
2016/11/23 5:18,7.5,16,7.5,16,17.8,1
2016/11/23 5:19,7.4,16,7.5,16,10.1,1
2016/11/23 5:20,7.3,16,7.4,16,15.7,1
2016/11/23 5:21,7.4,16,7.5,16,16.3,2
2016/11/23 5:22,7.5,16,7.6,16,15.6,16
2016/11/23 5:23,7.4,16,7.6,16,14,2
2016/11/23 5:24,7.5,16,7.6,16,14.8,15
2016/11/23 5:25,7.5,16,7.7,16,14.7,1
2016/11/23 5:26,7.2,16,7.5,16,16,15
2016/11/23 5:27,7.4,16,7.4,16,17.8,1
2016/11/23 5:28,7.4,16,7.4,16,14.9,1
2016/11/23 5:29,8,16,8,16,19,16
2016/11/23 5:30,8.3,16,8.3,16,19.7,15
2016/11/23 5:31,8.6,16,8.6,16,17.9,16
2016/11/23 5:32,8.4,16,8.6,16,13.5,2
2016/11/23 5:33,8.5,16,8.6,16,13.4,16
2016/11/23 5:34,8.3,16,8.4,16,13.9,2
2016/11/23 5:35,8.4,16,8.4,16,13.6,2
2016/11/23 5:36,8.5,16,8.7,16,17.5,16
2016/11/23 5:37,8.4,16,8.5,16,12.5,16
2016/11/23 5:38,8.5,16,8.5,16,17,16
2016/11/23 5:39,8.3,16,8.6,16,17.1,15
2016/11/23 5:40,8,16,8.3,16,15,16
2016/11/23 5:41,7.8,16,7.9,16,17.2,1
2016/11/23 5:42,7.9,16,7.9,16,12.7,16
2016/11/23 5:43,7.9,16,7.9,16,14.3,1
2016/11/23 5:44,7.9,16,7.9,16,11,15
2016/11/23 5:45,8,16,8,16,14.9,16
2016/11/23 5:46,8.1,16,8.2,16,15.3,16
2016/11/23 5:47,8.1,16,8.2,16,16.3,2
2016/11/23 5:48,8,16,8,16,15.9,2
2016/11/23 5:49,7.9,16,8,16,16.1,1
2016/11/23 5:50,7.8,16,7.9,16,12.1,16
2016/11/23 5:51,7.9,16,7.9,16,15.2,2
2016/11/23 5:52,7.8,16,7.9,16,16.7,1
2016/11/23 5:53,7.8,16,7.8,16,17.6,1
2016/11/23 5:54,7.9,1,8,16,16.2,1
2016/11/23 5:55,8,1,8.1,16,21.2,2
2016/11/23 5:56,8.3,1,8.4,1,17.5,2
2016/11/23 5:57,8.3,1,8.3,1,14.5,16
2016/11/23 5:58,8.3,1,8.4,1,14.1,16
2016/11/23 5:59,8.3,1,8.3,1,20.6,15
2016/11/23 6:00,8.5,1,8.5,1,16.2,1
2016/11/23 6:01,8.3,1,8.4,1,14.9,1
2016/11/23 6:02,8.3,1,8.3,1,18.4,1
2016/11/23 6:03,8.3,1,8.7,1,17,16
2016/11/23 6:04,8.2,1,8.3,1,12.8,16
2016/11/23 6:05,8.2,16,8.2,1,18.1,1
2016/11/23 6:06,7.8,16,8.1,1,15.7,15
2016/11/23 6:07,7.9,16,8,1,15.7,15
2016/11/23 6:08,7.7,16,8,1,15,1
2016/11/23 6:09,7.9,16,7.9,1,14.5,16
2016/11/23 6:10,7.7,16,7.9,1,14.7,1
2016/11/23 6:11,7.7,16,7.8,1,13,1
2016/11/23 6:12,7.5,16,7.6,1,12.3,1
2016/11/23 6:13,7.6,16,7.6,1,14.9,1
2016/11/23 6:14,7.8,16,7.8,16,15.1,16
2016/11/23 6:15,7.5,16,7.8,1,14.4,1
2016/11/23 6:16,7.7,16,7.7,16,16.6,1
2016/11/23 6:17,7.6,1,7.7,16,17.1,16
2016/11/23 6:18,7.6,1,7.6,16,12.1,15
2016/11/23 6:19,7.4,1,7.5,16,14.5,16
2016/11/23 6:20,7.6,1,7.6,16,17.7,1
2016/11/23 6:21,8.1,1,8.1,1,20.4,16
2016/11/23 6:22,8.2,1,8.2,1,15.1,16
2016/11/23 6:23,8.4,1,8.4,1,18.5,16
2016/11/23 6:24,8.5,1,8.5,1,18.3,16
2016/11/23 6:25,8.8,1,8.8,1,17.8,16
2016/11/23 6:26,8.7,1,8.8,1,16.2,2
2016/11/23 6:27,8.7,1,8.8,1,16.8,1
2016/11/23 6:28,9.2,1,9.3,1,21.8,1
2016/11/23 6:29,9.4,1,9.5,1,17.4,16
2016/11/23 6:30,9.3,1,9.4,1,18,16
2016/11/23 6:31,9,1,9.4,1,15.9,1
2016/11/23 6:32,9.2,16,9.2,1,17.4,16
2016/11/23 6:33,9,16,9.2,1,18.3,16
2016/11/23 6:34,8.9,1,9,1,14,2
2016/11/23 6:35,9.1,1,9.1,1,22.1,16
2016/11/23 6:36,9.1,16,9.2,1,13.9,14
2016/11/23 6:37,9.4,16,9.4,1,15.6,16
2016/11/23 6:38,9.5,16,9.5,1,20.2,1
2016/11/23 6:39,9.2,16,9.5,16,19.4,2
2016/11/23 6:40,9,16,9.3,16,15.8,16
2016/11/23 6:41,9.2,16,9.3,16,20.5,15
2016/11/23 6:42,9,16,9.2,16,17.8,16
2016/11/23 6:43,9.2,16,9.2,16,19.3,15
2016/11/23 6:44,9,16,9.3,16,12.8,1
2016/11/23 6:45,8.7,16,9.1,16,15.8,2
2016/11/23 6:46,8.9,16,8.9,16,18.3,1
2016/11/23 6:47,8.6,16,8.8,16,15.7,15
2016/11/23 6:48,8.2,16,8.6,16,17.1,16
2016/11/23 6:49,8.3,16,8.3,16,15.2,2
2016/11/23 6:50,8.9,16,8.9,16,19,2
2016/11/23 6:51,8.9,16,8.9,16,18.3,16
2016/11/23 6:52,9.1,16,9.1,16,16.6,15
2016/11/23 6:53,8.8,16,9.1,16,14.1,1
2016/11/23 6:54,8.7,16,8.8,16,10.8,16
2016/11/23 6:55,8.7,16,8.9,16,17.5,16
2016/11/23 6:56,8.4,16,8.7,16,17.6,15
2016/11/23 6:57,8.5,16,8.5,16,17.1,2
2016/11/23 6:58,8.5,16,8.5,16,17.9,2
2016/11/23 6:59,8.7,16,8.7,16,18.7,16
2016/11/23 7:00,8.1,16,8.7,16,12.3,15
2016/11/23 7:01,7.4,16,8,16,10.1,15
2016/11/23 7:02,7.1,16,7.4,16,17.1,1
2016/11/23 7:03,7.6,16,7.6,16,20.6,16
2016/11/23 7:04,8.1,16,8.1,16,18.9,1
2016/11/23 7:05,8,16,8,16,18.4,16
2016/11/23 7:06,8.2,16,8.2,16,16.6,1
2016/11/23 7:07,8.6,16,8.6,16,27.6,16
2016/11/23 7:08,8.7,16,8.8,16,14.5,15
2016/11/23 7:09,8.4,16,8.7,16,16.3,15
2016/11/23 7:10,8.9,16,8.9,16,19.6,1
2016/11/23 7:11,9.4,16,9.4,16,14.3,16
2016/11/23 7:12,9.7,16,9.8,16,14.3,1
2016/11/23 7:13,9.2,16,9.7,16,15.6,1
2016/11/23 7:14,9,16,9.2,16,17.1,15
2016/11/23 7:15,9.1,1,9.3,16,16.3,16
2016/11/23 7:16,8.8,1,9.1,16,15,16
2016/11/23 7:17,8.3,16,8.9,16,15.9,15
2016/11/23 7:18,8.2,16,8.4,16,16.1,2
2016/11/23 7:19,8.9,16,8.9,16,22.8,16
2016/11/23 7:20,8.6,16,8.9,16,15.8,16
2016/11/23 7:21,8.4,1,8.5,16,11.9,2
2016/11/23 7:22,8.4,16,8.6,16,13.9,1
2016/11/23 7:23,8.4,1,8.6,1,15.1,2
2016/11/23 7:24,8.4,16,8.6,1,14.7,1
2016/11/23 7:25,8.4,16,8.4,1,16.1,16
2016/11/23 7:26,8.5,16,8.6,1,15,1
2016/11/23 7:27,9,16,9,16,17.1,15
2016/11/23 7:28,8.8,16,8.9,16,14.2,1
2016/11/23 7:29,8.1,16,8.7,16,14.8,16
2016/11/23 7:30,8.2,16,8.3,16,18.8,16
2016/11/23 7:31,8.6,16,8.6,16,16.5,1
2016/11/23 7:32,8.7,16,8.7,16,16.8,1
2016/11/23 7:33,8.7,16,8.7,16,13.2,15
2016/11/23 7:34,8.8,16,8.8,16,17.1,16
2016/11/23 7:35,8.9,16,9.1,16,19.2,16
2016/11/23 7:36,8.8,16,8.8,16,13.9,1
2016/11/23 7:37,8.2,16,8.7,16,14.1,1
2016/11/23 7:38,8.6,1,8.6,16,18.9,16
2016/11/23 7:39,8.9,16,9,16,19.7,15
2016/11/23 7:40,9.1,16,9.1,16,20.3,1
2016/11/23 7:41,8.9,16,9.1,16,15.9,1
2016/11/23 7:42,8.8,16,8.9,16,16.5,1
2016/11/23 7:43,9.2,1,9.2,1,17.1,16
2016/11/23 7:44,8.9,16,9.2,1,12.6,1
2016/11/23 7:45,8.6,16,8.9,1,13,2
2016/11/23 7:46,9,16,9,1,21,16
2016/11/23 7:47,9.1,16,9.1,1,16.3,16
2016/11/23 7:48,9.1,16,9.2,1,16.2,16
2016/11/23 7:49,9,16,9.1,1,15.3,16
2016/11/23 7:50,8.7,16,9.1,1,13.4,16
2016/11/23 7:51,8.7,1,8.7,1,13.3,2
2016/11/23 7:52,8.8,16,8.8,1,16.8,2
2016/11/23 7:53,8.8,16,8.9,16,15.2,16
2016/11/23 7:54,8.9,16,8.9,16,15.8,15
2016/11/23 7:55,9.2,16,9.2,16,16.5,16
2016/11/23 7:56,8.9,16,9.3,16,13.4,2
2016/11/23 7:57,9.2,16,9.2,16,16.2,16
2016/11/23 7:58,8.9,1,9.2,16,16.3,1
2016/11/23 7:59,8.7,16,8.9,16,14.3,16
2016/11/23 8:00,8.7,16,8.7,16,14.5,16
2016/11/23 8:01,8.7,16,8.7,16,13.8,1
2016/11/23 8:02,8.8,16,8.9,16,18.8,16
2016/11/23 8:03,8.7,16,8.8,16,16,16
2016/11/23 8:04,8.5,16,8.7,16,12.5,16
2016/11/23 8:05,8.3,16,8.5,16,14.2,2
2016/11/23 8:06,8.6,16,8.6,16,19.9,1
2016/11/23 8:07,8.6,16,8.7,16,15.9,1
2016/11/23 8:08,8.8,16,8.8,1,15.1,16
2016/11/23 8:09,8.9,16,8.9,16,14.3,16
2016/11/23 8:10,9,16,9,16,14.8,16
2016/11/23 8:11,9.4,16,9.4,16,19.6,1
2016/11/23 8:12,9.1,16,9.4,16,15.1,1
2016/11/23 8:13,8.9,16,9.1,16,15.1,2
2016/11/23 8:14,9.2,1,9.2,16,16.2,15
2016/11/23 8:15,9.5,1,9.6,1,19.7,16
2016/11/23 8:16,9.3,1,9.4,1,18.8,2
2016/11/23 8:17,9.2,1,9.3,1,20.1,1
2016/11/23 8:18,9.3,16,9.3,1,17.7,1
2016/11/23 8:19,9.4,16,9.5,1,19.4,16
2016/11/23 8:20,9.2,16,9.4,1,13.5,2
2016/11/23 8:21,9,16,9.2,1,15.4,16
2016/11/23 8:22,8.8,16,9,1,16.1,2
2016/11/23 8:23,8.6,16,8.8,1,15.3,1
2016/11/23 8:24,8.5,16,8.7,1,15.3,15
2016/11/23 8:25,7.9,16,8.5,16,11.4,1
2016/11/23 8:26,7.6,16,7.9,16,12.1,15
2016/11/23 8:27,7.6,16,7.7,16,15.9,16
2016/11/23 8:28,7.4,1,7.5,16,14.7,2
2016/11/23 8:29,7.2,1,7.4,16,13.2,1
2016/11/23 8:30,7.6,1,7.6,16,16.6,16
2016/11/23 8:31,7.6,1,7.8,16,16.2,1
2016/11/23 8:32,7.4,1,7.6,16,12.4,1
2016/11/23 8:33,7.6,1,7.6,16,15.4,1
2016/11/23 8:34,7.4,1,7.6,16,11.5,2
2016/11/23 8:35,7.7,1,7.7,16,15.8,16
2016/11/23 8:36,7.9,1,8,1,15.2,2
2016/11/23 8:37,7.9,1,7.9,1,13.2,1
2016/11/23 8:38,7.5,16,7.8,1,11.1,2
2016/11/23 8:39,7.9,16,7.9,1,17.8,16
2016/11/23 8:40,8,16,8,1,21.2,16
2016/11/23 8:41,8.2,16,8.3,16,17.4,15
2016/11/23 8:42,8.3,16,8.3,16,18.5,1
2016/11/23 8:43,8.5,16,8.5,16,18.8,1
2016/11/23 8:44,8.9,16,8.9,16,20.1,16
2016/11/23 8:45,9,16,9,16,17.7,1
2016/11/23 8:46,9.3,16,9.3,16,21.6,1
2016/11/23 8:47,9.3,16,9.4,16,15,1
2016/11/23 8:48,9.9,16,9.9,16,16.3,16
2016/11/23 8:49,9.7,16,9.8,16,14.7,1
2016/11/23 8:50,9.3,1,9.7,16,17,2
2016/11/23 8:51,9,1,9.4,16,15.9,1
2016/11/23 8:52,9,1,9.2,16,13.8,16
2016/11/23 8:53,8.9,1,9.1,16,15,1
2016/11/23 8:54,8.7,1,8.8,16,15.6,16
2016/11/23 8:55,8.6,16,8.9,16,17.2,16
2016/11/23 8:56,8.1,16,8.6,16,15.4,15
2016/11/23 8:57,8.4,1,8.4,16,18.4,16
2016/11/23 8:58,8.3,1,8.5,16,15.7,16
2016/11/23 8:59,8.2,1,8.3,16,16.7,1
2016/11/23 9:00,8.2,16,8.2,1,17,2
2016/11/23 9:01,8.2,16,8.2,1,17,2
2016/11/23 9:02,8.2,16,8.3,1,21.1,15
2016/11/23 9:03,8.1,16,8.2,1,14,16
2016/11/23 9:04,8.2,16,8.3,1,15,2
2016/11/23 9:05,8.2,16,8.2,16,15.4,1
2016/11/23 9:06,8.4,1,8.4,1,15.3,1
2016/11/23 9:07,8,1,8.3,1,13.6,15
2016/11/23 9:08,7.8,16,8,1,14.9,16
2016/11/23 9:09,7.5,16,7.8,1,12.7,1
2016/11/23 9:10,7.5,1,7.6,1,15.6,16
2016/11/23 9:11,7.6,1,7.7,1,15.3,16
2016/11/23 9:12,7.8,1,7.8,1,15.2,1
2016/11/23 9:13,7.8,1,7.8,1,14.3,16
2016/11/23 9:14,7.6,1,7.8,1,13.3,16
2016/11/23 9:15,7.6,1,7.6,1,15.9,16
2016/11/23 9:16,7.6,1,7.6,1,14.7,2
2016/11/23 9:17,7.7,1,7.7,16,16.6,2
2016/11/23 9:18,8.1,1,8.1,1,17.8,15
2016/11/23 9:19,8.5,16,8.5,1,17.6,14
2016/11/23 9:20,8.3,16,8.5,1,13.4,16
2016/11/23 9:21,8.3,16,8.5,1,14.5,2
2016/11/23 9:22,8.3,16,8.4,1,16.7,1
2016/11/23 9:23,8.4,16,8.5,1,17.7,15
2016/11/23 9:24,8.4,16,8.5,1,14.1,16
2016/11/23 9:25,8.4,16,8.6,16,18,1
2016/11/23 9:26,8.2,16,8.4,16,16.3,15
2016/11/23 9:27,8.5,16,8.6,16,18.5,16
2016/11/23 9:28,8,16,8.5,16,10.7,2
2016/11/23 9:29,7.8,16,8,16,13.2,2
2016/11/23 9:30,7.8,1,7.9,16,15.6,1
2016/11/23 9:31,7.8,16,7.8,16,14.5,1
2016/11/23 9:32,7.8,16,7.9,16,14.2,1
2016/11/23 9:33,7.8,1,7.9,16,14.1,1
2016/11/23 9:34,7.7,1,7.8,16,11,1
2016/11/23 9:35,7.5,1,7.7,16,13.1,2
2016/11/23 9:36,7.1,1,7.5,16,10,16
2016/11/23 9:37,6.8,1,7,16,18,1
2016/11/23 9:38,7.1,1,7.1,16,16.8,16
2016/11/23 9:39,7,1,7.1,1,15.1,16
2016/11/23 9:40,7.1,1,7.1,16,14.7,1
2016/11/23 9:41,7.3,1,7.3,16,15.8,1
2016/11/23 9:42,7.2,1,7.4,16,15.3,1
2016/11/23 9:43,7.4,1,7.4,1,18.1,1
2016/11/23 9:44,7.9,1,7.9,1,21.9,16
2016/11/23 9:45,8.2,1,8.2,1,16.2,2
2016/11/23 9:46,8.6,1,8.6,1,16.3,1
2016/11/23 9:47,8.6,1,8.7,1,16,1
2016/11/23 9:48,8.8,1,8.8,1,17.8,16
2016/11/23 9:49,8.8,1,8.9,1,14.1,16
2016/11/23 9:50,8.5,1,8.7,1,13.2,2
2016/11/23 9:51,8.1,1,8.5,1,14.5,2
2016/11/23 9:52,7.9,1,8.1,1,14,1
2016/11/23 9:53,7.6,1,7.9,1,17.9,1
2016/11/23 9:54,7.4,1,7.5,1,16.9,1
2016/11/23 9:55,7.4,1,7.5,1,13.8,1
2016/11/23 9:56,7.1,1,7.4,1,13,15
2016/11/23 9:57,6.8,1,7.1,1,10.7,2
2016/11/23 9:58,6.6,1,6.8,1,11.9,1
2016/11/23 9:59,6.6,1,6.6,1,13.3,16
2016/11/23 10:00,6.9,1,6.9,1,15.6,1
2016/11/23 10:01,7.1,1,7.1,1,15.2,1
2016/11/23 10:02,7,1,7.1,1,14.7,15
2016/11/23 10:03,7.1,16,7.3,1,13.4,1
2016/11/23 10:04,7.1,16,7.1,1,16.8,16
2016/11/23 10:05,7.1,16,7.2,1,15.6,1
2016/11/23 10:06,7.4,16,7.4,16,16.3,1
2016/11/23 10:07,7.5,16,7.5,16,13.1,2
2016/11/23 10:08,7.2,16,7.5,16,9,15
2016/11/23 10:09,7.2,16,7.3,16,12.6,3
2016/11/23 10:10,7.3,16,7.3,16,14.8,16
2016/11/23 10:11,7.1,16,7.2,16,12.3,1
2016/11/23 10:12,7,16,7.1,16,12.7,15
2016/11/23 10:13,7.4,16,7.4,16,16.9,15
2016/11/23 10:14,7,16,7.4,16,11.4,16
2016/11/23 10:15,6.7,16,7,16,10.2,2
2016/11/23 10:16,6.8,16,6.8,16,15.2,1
2016/11/23 10:17,7,16,7,16,15.9,16
2016/11/23 10:18,7.7,16,7.7,16,19.2,16
2016/11/23 10:19,8,16,8,16,16.8,1
2016/11/23 10:20,7.5,16,8,16,13.6,1
2016/11/23 10:21,7.5,16,7.5,16,14.1,15
2016/11/23 10:22,7.7,16,7.8,16,13.3,16
2016/11/23 10:23,7.2,16,7.6,16,10.1,1
2016/11/23 10:24,7.6,16,7.6,16,17.4,16
2016/11/23 10:25,7.7,16,7.8,16,16.8,16
2016/11/23 10:26,7.7,16,7.8,16,15.7,16
2016/11/23 10:27,7.2,16,7.6,16,10,1
2016/11/23 10:28,6.9,1,7.2,16,13.4,16
2016/11/23 10:29,6.4,16,6.8,16,8.9,16
2016/11/23 10:30,6.8,16,6.8,16,13.2,16
2016/11/23 10:31,6.8,16,6.9,16,14.7,15
2016/11/23 10:32,6.6,16,6.7,16,10.5,14
2016/11/23 10:33,6.5,16,6.6,16,9.3,15
2016/11/23 10:34,6.3,16,6.6,16,12.8,1
2016/11/23 10:35,6.3,16,6.4,16,12.4,16
2016/11/23 10:36,6,16,6.2,16,15.7,16
2016/11/23 10:37,6.4,16,6.4,16,13.4,16
2016/11/23 10:38,6.2,16,6.3,16,14.2,1
2016/11/23 10:39,6.4,1,6.4,16,11.3,1
2016/11/23 10:40,6.1,1,6.4,16,9.7,1